Home   Weather   Butare   Past weeks

Flag for Rwanda Past Weather in Butare, Rwanda — Yesterday and Last 2 Weeks

Now
64 °F

Partly cloudy.


Feels Like: 64 °F
Forecast: 57 / 74 °F
Wind: 7 mph from Northwest

Location: Kigali Airport

Current Time: Sep 28, 2016 at 9:00:58 PM

Latest Report: Sep 28, 2016 at 8:00 PM


Visibility: N/A

Pressure: 30.21 "Hg (24.60 "Hg at 1750m altitude)

Humidity: 88%

Dew Point: 61 °F

Location of ButareLocation

Past Weather in Butare — Graph

°F

Butare Temperature Yesterday

Maximum temperature yesterday: 81 °F (at 11:30 AM)
Minimum temperature yesterday: 64 °F (at 3:00 AM)
Average temperature yesterday: 71 °F

High & Low Weather Summary for the Past Weeks

 TemperatureHumidityPressure
High88 °F (Sep 14, 1:30 PM)100% (Sep 20, 6:30 AM)30.24 "Hg (Sep 20, 6:30 AM)
Low61 °F (Sep 17, 4:00 AM)27% (Sep 14, 1:30 PM)29.95 "Hg (Sep 25, 4:00 PM)
Average72 °F64%30.12 "Hg
* Reported Sep 13 7:30 PM — Sep 28 7:30 PM, Butare, Weather by CustomWeather, © 2016

Note: Actual official high and low records may vary slightly from our data, if they occured in-between our weather recording intervals... More about our weather records

Advertising

Butare Weather History for the Previous 24 Hours

Scroll right to see more
 ConditionsComfort  
Time TempWeatherWind HumidityBarometerVisibility
7:30 PM
Wed, Sep 28
64 °FPassing clouds.7 mph88%30.18 "HgN/A
6:00 PM66 °FPassing clouds.3 mph83%30.15 "HgN/A
5:00 PM68 °FPartly sunny.8 mph78%30.12 "HgN/A
4:00 PM70 °FPartly sunny.3 mph73%30.12 "HgN/A
3:30 PM68 °FPartly sunny.13 mph78%30.09 "HgN/A
2:00 PM72 °FPartly sunny.8 mph73%30.09 "HgN/A
1:00 PM75 °FPartly sunny.3 mph57%30.09 "HgN/A
12:00 PM75 °FPartly sunny.6 mph61%30.12 "HgN/A
10:00 AM70 °FPartly sunny.3 mph78%30.21 "HgN/A
9:00 AM68 °FBroken clouds.No wind83%30.21 "HgN/A
8:30 AM68 °FBroken clouds.No wind83%30.21 "HgN/A
7:00 AM66 °FBroken clouds.No wind88%30.18 "HgN/A
6:00 AM64 °FBroken clouds.No wind88%30.15 "HgN/A
3:30 AM64 °FPartly cloudy.5 mph88%30.12 "HgN/A
2:30 AM64 °FPassing clouds.5 mph88%30.09 "HgN/A
1:30 AM64 °FPassing clouds.6 mph88%30.12 "HgN/A
12:30 AM66 °FPassing clouds.3 mph83%30.15 "HgN/A
12:00 AM66 °FPassing clouds.1 mph83%30.15 "HgN/A
11:00 PM
Tue, Sep 27
66 °FPassing clouds.6 mph88%30.18 "HgN/A
10:00 PM68 °FPassing clouds.1 mph78%30.18 "HgN/A
9:00 PM68 °FPartly cloudy.2 mph83%30.15 "HgN/A
Weather by CustomWeather, © 2016

See weather overviewHow to use our weather pages